Peru, IN

5:32 AM EDT on April 25, 2017 (GMT -0400)
Grissom Air Reserve Base

Weather History for KGUS - December, 2012

Change the Weather History Date:

Thursday, December 6, 2012

  Actual Average Record
Temperature  
Mean Temperature 36 °F -  
Max Temperature 45 °F 39 °F 69 °F (1998)
Min Temperature 26 °F 28 °F 6 °F (2007)
Degree Days  
Heating Degree Days 30    
Moisture  
Dew Point 32 °F    
Average Humidity 86    
Maximum Humidity 91    
Minimum Humidity 77    
Precipitation  
Precipitation 0.00 in - - ()
Sea Level Pressure  
Sea Level Pressure 30.11 in    
Wind  
Wind Speed 9 mph (SE)    
Max Wind Speed 14 mph    
Max Gust Speed -    
Visibility 10 miles    
Events      
Averages and records for this station are not official NWS values.
T = Trace of Precipitation, MM = Missing Value Source: NWS Daily Summary

Daily Weather History Graph

Daily Weather History Graph

Search for Another Location

Airport or City:

Trip Planner

Search our weather history database for the weather conditions in past years. The results will help you decide how hot, cold, wet, or windy it might be!

Date:

Astronomy

Dec. 06, 2012 Rise Set
Actual Time 7:54 AM EST 5:17 PM EST
Civil Twilight 7:23 AM EST 5:47 PM EST
Nautical Twilight 6:49 AM EST 6:22 PM EST
Astronomical Twilight 6:16 AM EST 6:55 PM EST
Moon 12:07 AM EST (12/6) 12:45 PM EST (12/6)
Length of Visible Light 10h 24m
Length of Day
9h 22m
Waning Gibbous, 49% of the Moon is Illuminated
Dec 6
Waning Gibbous
Dec 13
New
Dec 20
First Quarter
Dec 28
Full
Jan 4
Last Quarter

Hourly Weather History & Observations

Time (EST) Temp. Windchill Dew Point Humidity Pressure Visibility Wind Dir Wind Speed Gust Speed Precip Events Conditions
12:55 AM 29.7 °F 19.1 °F 26.1 °F 86% 30.26 in 10.0 mi ESE 13.8 mph - N/A   Clear
1:55 AM 29.7 °F 20.1 °F 25.5 °F 85% 30.25 in 10.0 mi ESE 11.5 mph - N/A   Clear
2:55 AM 28.8 °F 20.2 °F 25.5 °F 88% 30.25 in 10.0 mi ESE 9.2 mph - N/A   Partly Cloudy
3:55 AM 28.4 °F 18.5 °F 25.3 °F 88% 30.24 in 10.0 mi ESE 11.5 mph - N/A   Mostly Cloudy
4:55 AM 27.9 °F 19.8 °F 25.0 °F 89% 30.22 in 10.0 mi ESE 8.1 mph - N/A   Scattered Clouds
5:55 AM 27.1 °F 19.7 °F 24.6 °F 90% 30.22 in 10.0 mi ESE 6.9 mph - N/A   Clear
6:55 AM 26.8 °F 18.5 °F 24.4 °F 91% 30.21 in 10.0 mi ESE 8.1 mph - N/A   Partly Cloudy
7:55 AM 27.7 °F 19.6 °F 25.2 °F 90% 30.20 in 10.0 mi ESE 8.1 mph - N/A   Overcast
8:55 AM 29.1 °F 20.6 °F 25.9 °F 88% 30.19 in 10.0 mi SE 9.2 mph - N/A   Overcast
9:55 AM 30.9 °F 23.5 °F 27.3 °F 86% 30.18 in 10.0 mi SE 8.1 mph - N/A   Overcast
10:31 AM 32.0 °F 25.6 °F 28.4 °F 87% 30.14 in 10.0 mi SE 6.9 mph - N/A   Overcast
10:55 AM 33.3 °F 27.9 °F 29.1 °F 85% 30.18 in 10.0 mi SE 5.8 mph - N/A   Mostly Cloudy
11:55 AM 35.6 °F 28.0 °F 30.7 °F 82% 30.13 in 10.0 mi SE 10.4 mph - N/A   Overcast
12:55 PM 39.0 °F 33.4 °F 33.4 °F 80% 30.09 in 10.0 mi SSE 8.1 mph - N/A   Scattered Clouds
1:55 PM 41.4 °F 38.4 °F 35.1 °F 78% 30.06 in 10.0 mi SSE 4.6 mph - N/A   Scattered Clouds
2:55 PM 43.2 °F 39.0 °F 36.5 °F 77% 30.03 in 10.0 mi SE 6.9 mph - N/A   Mostly Cloudy
3:55 PM 45.0 °F 41.8 °F 38.1 °F 77% 30.03 in 10.0 mi SE 5.8 mph - N/A   Overcast
4:55 PM 42.8 °F 39.3 °F 38.3 °F 84% 30.02 in 10.0 mi SE 5.8 mph - N/A   Partly Cloudy
5:55 PM 41.2 °F 37.3 °F 37.6 °F 87% 30.01 in 10.0 mi SE 5.8 mph - N/A   Partly Cloudy
6:55 PM 41.4 °F 39.4 °F 37.8 °F 87% 30.01 in 10.0 mi SE 3.5 mph - N/A   Mostly Cloudy
7:55 PM 40.3 °F 36.3 °F 37.2 °F 89% 30.00 in 10.0 mi SE 5.8 mph - N/A   Overcast
8:55 PM 39.9 °F - 37.2 °F 90% 29.99 in 10.0 mi Calm Calm - N/A   Overcast
9:55 PM 41.5 °F 39.6 °F 38.3 °F 88% 29.99 in 10.0 mi SSE 3.5 mph - N/A   Overcast
10:55 PM 41.5 °F 38.6 °F 38.7 °F 89% 29.98 in 10.0 mi SSE 4.6 mph - N/A   Overcast
11:55 PM 42.4 °F 38.8 °F 38.8 °F 87% 29.96 in 10.0 mi South 5.8 mph - N/A   Overcast